Regional Weather Roundup
Issued by NWS Kansas City/Pleasant Hill, MO

Home | Current Version | Previous Version | Graphics & Text | Print | Product List | Glossary Off
Versions: 1 2 3 4 5 6 7 8 9 10 11 12 13 14 15 16 17 18 19 20 21 22 23 24 25 26 27

000
ASUS43 KEAX 301610
RWREAX

WEATHER ROUNDUP FOR EASTERN KANSAS AND NORTHWEST MISSOURI
NATIONAL WEATHER SERVICE KANSAS CITY/PLEASANT HILL MO
1100 AM CDT SUN APR 30 2017

KSZ040-057-103>105-MOZ028-029-037-043-301700-
...KANSAS CITY METROPOLITAN AREA...

CITY           SKY/WX    TMP DP  RH WIND       PRES   REMARKS
K.C. INTL      LGT RAIN  49  48  97 E15       29.48F VSB 1
K.C. DOWNTOWN  LGT SNOW N/A N/A N/A S13       29.53R
LEES SUMMIT    RAIN      49  49 100 E13       29.50S FOG
OLATHE - IXD   LGT RAIN  54  53  97 S10       29.51S FOG
OLATHE - OJC   LGT RAIN  53  53 100 S8        29.52R FOG
LAWRENCE       LGT RAIN  52  52 100 E8        29.50F FOG

$$

MOZ001>008-011>017-020>025-030>033-038>040-044>046-053-054-301700-
...NORTHERN AND CENTRAL MISSOURI...

CITY           SKY/WX    TMP DP  RH WIND       PRES   REMARKS
ST. JOSEPH     LGT RAIN  46  46 100 E18G26    29.50F FOG
MOSBY          CLOUDY    50  48  93 E9G20     29.51S FOG
WHITEMAN AFB   CLOUDY    63 N/A N/A E13       29.50F
CLINTON        CLOUDY    66  64  94 SE17G23   29.49R
SEDALIA        CLOUDY    64  64 100 E16       29.53F
WARSAW         NOT AVBL
CHILLICOTHE      N/A     47  46  97 NE14G24   29.59F
KIRKSVILLE     LGT RAIN  46  31  55 N18       29.68F

$$

MOZ041-047>049-056>058-063>065-088>090-097-301700-
...EASTERN AND SOUTHERN MISSOURI...

CITY           SKY/WX    TMP DP  RH WIND       PRES   REMARKS
ST. LOUIS INTL RAIN      64  61  90 SE14      29.75R FOG
SPIRIT OF STL  LGT RAIN  63  62  97 SE12      29.71F FOG
COLUMBIA       CLOUDY    63  62  97 SE16      29.59F
JEFFERSON CITY CLOUDY    67  62  84 SE16G22   29.59F
ROLLA          HVY RAIN  63  32  31 E17G25    29.60F
OSAGE BEACH    LGT RAIN  64  62  93 SE15G21   29.55F
SPRINGFIELD    CLOUDY    68  63  84 S20G28    29.52R
BRANSON        CLOUDY    64  59  82 S7        29.58F
JOPLIN         CLOUDY    55  51  86 SW12      29.56F

$$

IAZ060-094-KSZ022-034>040-054-083-096-NEZ052-066-093-301700-
...KANSAS...SOUTHEAST NEBRASKA AND IOWA...

CITY           SKY/WX    TMP DP  RH WIND       PRES   REMARKS
TOPEKA         LGT RAIN  50  49  96 E12       29.48F
MANHATTAN      CLOUDY    46  32  58 NE12      29.47F FOG
EMPORIA        CLOUDY    50  49  96 S10       29.49S
CHANUTE        CLOUDY    51  47  86 S16       29.53S
WICHITA        CLOUDY    48  42  80 S15G23    29.44F
OMAHA          CLOUDY    41  36  82 NE22G36   29.68F WCI  31
LINCOLN        RAIN      40  38  93 NE24G41   29.59R VSB 1   WCI  29
FALLS CITY     LGT RAIN  44  43  96 E22G31    29.50F FOG
LAMONI         CLOUDY    44  42  93 NE23G33   29.63F
DES MOINES     DRIZZLE   43  41  93 NE21      29.75F WCI  34

$$





USA.gov is the U.S. government's official web portal to all federal, state and local government web resources and services.